sat.trackr.live / text

‹ back to catalog

STARLINK-32158

NORAD 60267 · 2024-131N

PAYLOAD ACTIVE UNKNOWN

§ Identity

Operator
Country
US
Launch date
2024-07-27
Launch site
AFETR
Launch vehicle
Mass (kg)
RCS (m²)

Purposes: comms

External: N2YO · Heavens-Above · Gunter

§ Orbital elements

Epoch: 2026-09-21T06:38:33.582048Z

Period
93.85 min
Inclination
53.1581°
Eccentricity
0.0001527
Mean motion
15.34392118 rev/d
Perigee alt
461.7 km
Apogee alt
463.8 km
Semi-major
6,840.9 km
B*
-4.8747e-6
RAAN
221.8350°
Arg perigee
84.8245°
Mean anomaly
275.2932°
Rev number
12,159

§ Raw data

STARLINK-321581 60267U 24131N   26264.27677757 -.00000541  00000+0 -48747-5 0  99962 60267  53.1581 221.8350 0001527  84.8245 275.2932 15.34392118121598

JSON: /api/v1/satellites/60267 · /tle

For live sub-satellite position, see the globe view (requires WebGL).

§ Visibility from observer

Set your observer location to see the next 7 days of passes ≥ 10°. The values pass through the URL so the page stays shareable.

No JS? Fill the form by hand. The geolocation button needs JavaScript.